Maple Lake, MN

12:42 PM CDT on July 20, 2017 (GMT -0500)
Maple Lake Municipal

Weather History for KMGG - October, 2012

Change the Weather History Date:

Tuesday, October 30, 2012

  Actual Average (KSTC) Record (KSTC)
Temperature  
Mean Temperature 35 °F -  
Max Temperature 45 °F 50 °F 76 °F (1950)
Min Temperature 25 °F 31 °F 10 °F (1895)
Degree Days  
Heating Degree Days 30    
Moisture  
Dew Point 26 °F    
Average Humidity 71    
Maximum Humidity 89    
Minimum Humidity 43    
Precipitation  
Precipitation 0.00 in - - ()
Sea Level Pressure  
Sea Level Pressure 30.17 in    
Wind  
Wind Speed 3 mph (NNE)    
Max Wind Speed 12 mph    
Max Gust Speed -    
Visibility 10 miles    
Events      
Averages and records for this station are not official NWS values.
T = Trace of Precipitation, MM = Missing Value Source: NWS Daily Summary

Daily Weather History Graph

Daily Weather History Graph

Search for Another Location

Airport or City:

Trip Planner

Search our weather history database for the weather conditions in past years. The results will help you decide how hot, cold, wet, or windy it might be!

Date:

Astronomy

Oct. 30, 2012 Rise Set
Actual Time 7:52 AM CDT 6:05 PM CDT
Civil Twilight 7:22 AM CDT 6:36 PM CDT
Nautical Twilight 6:47 AM CDT 7:10 PM CDT
Astronomical Twilight 6:13 AM CDT 7:45 PM CDT
Moon 6:31 PM CDT (10/30) 8:43 AM CDT (10/30)
Length of Visible Light 11h 14m
Length of Day
10h 12m
Full, 99% of the Moon is Illuminated
Oct 30
Full
Nov 6
Last Quarter
Nov 13
New
Nov 20
First Quarter
Nov 28
Full

Hourly Weather History & Observations

Time (CDT) Temp. Windchill Dew Point Humidity Pressure Visibility Wind Dir Wind Speed Gust Speed Precip Events Conditions
12:14 AM 29.8 °F - 26.4 °F 87% 30.24 in 10.0 mi Calm Calm - N/A   Clear
12:34 AM 30.9 °F 27.5 °F 27.0 °F 85% 30.23 in 10.0 mi East 3.5 mph - N/A   Clear
12:54 AM 30.0 °F 26.5 °F 26.4 °F 86% 30.23 in 10.0 mi East 3.5 mph - N/A   Clear
1:14 AM 30.7 °F 26.0 °F 26.8 °F 85% 30.24 in 10.0 mi ENE 4.6 mph - N/A   Clear
1:35 AM 28.6 °F 24.8 °F 25.7 °F 89% 30.24 in 10.0 mi East 3.5 mph - N/A   Clear
1:54 AM 30.4 °F - 25.5 °F 82% 30.24 in 10.0 mi Calm Calm - N/A   Clear
2:14 AM 29.1 °F - 25.7 °F 87% 30.24 in 10.0 mi Calm Calm - N/A   Clear
2:34 AM 28.8 °F - 24.4 °F 84% 30.24 in 10.0 mi Calm Calm - N/A   Clear
2:54 AM 29.1 °F - 24.8 °F 84% 30.23 in 10.0 mi Calm Calm - N/A   Clear
3:34 AM 27.9 °F - 23.5 °F 84% 30.23 in 10.0 mi Calm Calm - N/A   Clear
3:54 AM 27.1 °F 23.2 °F 23.9 °F 88% 30.23 in 10.0 mi NE 3.5 mph - N/A   Clear
4:15 AM 28.2 °F - 23.7 °F 83% 30.23 in 10.0 mi Calm Calm - N/A   Clear
4:34 AM 29.3 °F 24.3 °F 23.7 °F 80% 30.22 in 10.0 mi ENE 4.6 mph - N/A   Clear
4:54 AM 28.4 °F - 23.7 °F 83% 30.23 in 10.0 mi Calm Calm - N/A   Clear
5:34 AM 26.2 °F 22.1 °F 22.8 °F 87% 30.23 in 10.0 mi North 3.5 mph - N/A   Clear
5:54 AM 27.3 °F - 23.0 °F 84% 30.23 in 10.0 mi Calm Calm - N/A   Clear
6:14 AM 26.6 °F - 23.0 °F 86% 30.23 in 10.0 mi Calm Calm - N/A   Clear
6:34 AM 26.8 °F - 23.5 °F 88% 30.22 in 10.0 mi Calm Calm - N/A   Clear
6:54 AM 27.1 °F - 23.4 °F 86% 30.22 in 10.0 mi Calm Calm - N/A   Clear
7:14 AM 26.6 °F - 23.4 °F 88% 30.22 in 10.0 mi Calm Calm - N/A   Clear
7:34 AM 27.1 °F - 23.7 °F 87% 30.22 in 10.0 mi Calm Calm - N/A   Clear
7:54 AM 25.5 °F - 22.5 °F 88% 30.22 in 10.0 mi Calm Calm - N/A   Clear
8:14 AM 27.9 °F - 24.1 °F 86% 30.23 in 10.0 mi Calm Calm - N/A   Clear
8:54 AM 31.1 °F 27.7 °F 26.6 °F 83% 30.23 in 10.0 mi NE 3.5 mph - N/A   Clear
9:14 AM 32.0 °F 28.7 °F 27.5 °F 83% 30.23 in 10.0 mi NNE 3.5 mph - N/A   Clear
9:34 AM 33.1 °F 28.7 °F 28.0 °F 82% 30.23 in 10.0 mi NE 4.6 mph - N/A   Clear
10:15 AM 36.7 °F 31.2 °F 30.6 °F 78% 30.22 in 10.0 mi East 6.9 mph - N/A   Clear
10:35 AM 37.6 °F 31.6 °F 31.3 °F 78% 30.22 in 10.0 mi East 8.1 mph - N/A   Clear
10:54 AM 40.6 °F 34.3 °F 32.2 °F 72% 30.22 in 10.0 mi East 10.4 mph - N/A   Clear
11:14 AM 40.5 °F 35.1 °F 32.2 °F 72% 30.21 in 10.0 mi East 8.1 mph - N/A   Clear
11:54 AM 41.0 °F 36.4 °F 32.2 °F 71% 30.20 in 10.0 mi ENE 6.9 mph - N/A   Scattered Clouds
12:14 PM 41.9 °F 37.5 °F 32.2 °F 68% 30.19 in 10.0 mi NE 6.9 mph - N/A   Mostly Cloudy
12:34 PM 42.1 °F 38.4 °F 32.0 °F 67% 30.19 in 10.0 mi ENE 5.8 mph - N/A   Overcast
12:54 PM 42.3 °F 39.4 °F 32.0 °F 67% 30.18 in 10.0 mi NE 4.6 mph - N/A   Overcast
1:15 PM 43.0 °F 39.5 °F 32.0 °F 65% 30.17 in 10.0 mi NNE 5.8 mph - N/A   Mostly Cloudy
1:35 PM 43.9 °F 40.5 °F 32.0 °F 63% 30.16 in 10.0 mi North 5.8 mph - N/A   Overcast
1:54 PM 43.7 °F 41.1 °F 31.6 °F 63% 30.15 in 10.0 mi North 4.6 mph - N/A   Overcast
2:14 PM 44.1 °F 40.1 °F 32.0 °F 63% 30.14 in 10.0 mi NNE 6.9 mph - N/A   Overcast
2:34 PM 43.9 °F 40.5 °F 32.0 °F 63% 30.14 in 10.0 mi North 5.8 mph - N/A   Overcast
2:54 PM 44.1 °F 40.8 °F 32.0 °F 63% 30.13 in 10.0 mi North 5.8 mph - N/A   Overcast
3:14 PM 44.6 °F 42.2 °F 32.0 °F 61% 30.13 in 10.0 mi North 4.6 mph - N/A   Overcast
3:34 PM 44.8 °F 41.0 °F 32.0 °F 61% 30.13 in 10.0 mi North 6.9 mph - N/A   Overcast
3:54 PM 45.3 °F 40.6 °F 32.0 °F 60% 30.13 in 10.0 mi NNW 9.2 mph - N/A   Overcast
4:14 PM 45.0 °F 40.1 °F 32.0 °F 60% 30.11 in 10.0 mi North 9.2 mph - N/A   Overcast
4:34 PM 45.5 °F 42.5 °F 32.4 °F 60% 30.11 in 10.0 mi North 5.8 mph - N/A   Overcast
4:54 PM 45.7 °F 40.2 °F 31.3 °F 57% 30.11 in 10.0 mi North 11.5 mph - N/A   Mostly Cloudy
5:14 PM 45.5 °F 40.8 °F 30.9 °F 57% 30.11 in 10.0 mi North 9.2 mph - N/A   Overcast
5:34 PM 44.8 °F 41.0 °F 31.6 °F 60% 30.11 in 10.0 mi NNW 6.9 mph - N/A   Overcast
6:14 PM 43.7 °F 41.1 °F 32.0 °F 63% 30.10 in 10.0 mi North 4.6 mph - N/A   Scattered Clouds
6:34 PM 42.1 °F 39.2 °F 32.0 °F 67% 30.10 in 10.0 mi North 4.6 mph - N/A   Mostly Cloudy
7:14 PM 40.8 °F 37.8 °F 32.0 °F 71% 30.10 in 10.0 mi North 4.6 mph - N/A   Clear
7:34 PM 39.6 °F 36.3 °F 24.4 °F 55% 30.11 in 10.0 mi NNE 4.6 mph - N/A   Clear
7:54 PM 38.8 °F 35.4 °F 21.2 °F 49% 30.11 in 10.0 mi NNE 4.6 mph - N/A   Clear
8:14 PM 38.3 °F 35.9 °F 17.6 °F 43% 30.11 in 10.0 mi NNE 3.5 mph - N/A   Clear
8:35 PM 36.7 °F 34.1 °F 18.9 °F 49% 30.10 in 10.0 mi NE 3.5 mph - N/A   Clear
8:54 PM 36.0 °F 32.1 °F 18.5 °F 49% 30.10 in 10.0 mi NNE 4.6 mph - N/A   Clear
9:15 PM 34.7 °F 31.8 °F 18.1 °F 51% 30.11 in 10.0 mi NE 3.5 mph - N/A   Clear
9:34 PM 34.3 °F 31.4 °F 18.1 °F 52% 30.10 in 10.0 mi NNE 3.5 mph - N/A   Clear
9:55 PM 33.3 °F 30.2 °F 17.6 °F 53% 30.09 in 10.0 mi NNE 3.5 mph - N/A   Clear
10:14 PM 30.2 °F - 19.0 °F 63% 30.10 in 10.0 mi Calm Calm - N/A   Clear
10:34 PM 30.0 °F - 19.0 °F 64% 30.10 in 10.0 mi Calm Calm - N/A   Clear
10:54 PM 30.4 °F 26.9 °F 18.9 °F 62% 30.09 in 10.0 mi NNE 3.5 mph - N/A   Clear
11:15 PM 29.8 °F 26.3 °F 17.2 °F 59% 30.08 in 10.0 mi NNE 3.5 mph - N/A   Clear
11:35 PM 26.1 °F 21.9 °F 19.0 °F 75% 30.08 in 10.0 mi North 3.5 mph - N/A   Clear
11:54 PM 26.2 °F - 19.0 °F 74% 30.08 in 10.0 mi Calm Calm - N/A   Clear